Weather History for KAMG - February, 2013

Change the Weather History Date:

Sunday, February 3, 2013

  Actual Average Record
Temperature  
Mean Temperature 53 °F 52 °F  
Max Temperature 66 °F 63 °F 83 °F (1989)
Min Temperature 40 °F 41 °F 22 °F (1980)
Degree Days  
Heating Degree Days 12 13  
Month to date heating degree days 50 39  
Since 1 July heating degree days 901 1128  
Cooling Degree Days 0 0  
Month to date cooling degree days 0 0  
Year to date cooling degree days 24 5  
Growing Degree Days 3 (Base 50)    
Moisture  
Dew Point 32 °F    
Average Humidity 50    
Maximum Humidity 76    
Minimum Humidity 24    
Precipitation  
Precipitation 0.00 in 0.14 in 2.17 in (1998)
Month to date precipitation 0.00 0.41  
Year to date precipitation 0.57 4.67  
Snow  
Snow 0.00 in 0.00 in 0.00 in ()
Month to date snowfall 0.0 0.0  
Since 1 July snowfall 0.0 0.1  
Snow Depth 0.00 in    
Sea Level Pressure  
Sea Level Pressure 30.10 in    
Wind  
Wind Speed 7 mph (West)    
Max Wind Speed 22 mph    
Max Gust Speed 29 mph    
Visibility 9 miles    
Events      
T = Trace of Precipitation, MM = Missing Value Source: NWS Daily Summary

Daily Weather History Graph

Daily Weather History Graph

Search for Another Location

Airport or City:

Trip Planner

Search our weather history database for the weather conditions in past years. The results will help you decide how hot, cold, wet, or windy it might be!

Date:

Astronomy

Feb. 03, 2013 Rise Set
Actual Time 7:21 AM EST 6:06 PM EST
Civil Twilight 6:55 AM EST 6:32 PM EST
Nautical Twilight 6:26 AM EST 7:01 PM EST
Astronomical Twilight 5:58 AM EST 7:29 PM EST
Moon 12:46 AM EST (2/3) 11:45 AM EST (2/3)
Length of Visible Light 11h 36m
Length of Day
10h 45m
Waning Gibbous, 49% of the Moon is Illuminated
Feb 3
Waning Gibbous
Feb 10
New
Feb 17
First Quarter
Feb 25
Full
Mar 4
Last Quarter

Hourly Weather History & Observations

Time (EST) Temp. Windchill Dew Point Humidity Pressure Visibility Wind Dir Wind Speed Gust Speed Precip Events Conditions
12:53 AM 42.1 °F 40.2 °F 33.1 °F 70% 30.14 in 6.0 mi SSW 3.5 mph - N/A   Haze
1:53 AM 48.0 °F - 28.9 °F 48% 30.12 in 6.0 mi West 6.9 mph - N/A   Haze
2:53 AM 48.0 °F - 30.9 °F 52% 30.11 in 6.0 mi West 6.9 mph - N/A   Haze
3:53 AM 48.9 °F - 37.9 °F 66% 30.12 in 6.0 mi West 5.8 mph - N/A   Haze
4:53 AM 48.9 °F - 39.9 °F 71% 30.12 in 8.0 mi WNW 8.1 mph - N/A   Mostly Cloudy
5:53 AM 48.9 °F - 39.9 °F 71% 30.14 in 10.0 mi NW 8.1 mph - N/A   Clear
6:53 AM 46.0 °F 42.5 °F 37.9 °F 73% 30.17 in 10.0 mi NW 6.9 mph - N/A   Clear
7:53 AM 44.1 °F - 37.0 °F 76% 30.18 in 10.0 mi Calm Calm - N/A   Clear
8:53 AM 48.9 °F - 37.9 °F 66% 30.18 in 10.0 mi WNW 6.9 mph - N/A   Clear
9:53 AM 53.1 °F - 32.0 °F 45% 30.19 in 10.0 mi WNW 11.5 mph - N/A   Clear
10:53 AM 57.0 °F - 30.0 °F 36% 30.17 in 10.0 mi WNW 12.7 mph - N/A   Clear
11:53 AM 59.0 °F - 28.9 °F 32% 30.14 in 10.0 mi West 10.4 mph 21.9 mph N/A   Clear
12:53 PM 61.0 °F - 28.9 °F 30% 30.10 in 10.0 mi WNW 10.4 mph 19.6 mph N/A   Clear
1:53 PM 63.0 °F - 27.0 °F 26% 30.05 in 10.0 mi WSW 13.8 mph 21.9 mph N/A   Clear
2:53 PM 64.9 °F - 27.0 °F 24% 30.03 in 10.0 mi West 15.0 mph 21.9 mph N/A   Clear
3:53 PM 64.9 °F - 27.0 °F 24% 30.03 in 10.0 mi West 12.7 mph 19.6 mph N/A   Clear
4:53 PM 64.0 °F - 26.1 °F 24% 30.03 in 10.0 mi WSW 13.8 mph - N/A   Clear
5:53 PM 61.0 °F - 28.0 °F 29% 30.04 in 10.0 mi WSW 9.2 mph - N/A   Clear
6:53 PM 57.0 °F - 28.9 °F 34% 30.05 in 10.0 mi WSW 4.6 mph - N/A   Clear
7:53 PM 46.0 °F - 32.0 °F 58% 30.06 in 10.0 mi Calm Calm - N/A   Clear
8:53 PM 45.0 °F 43.5 °F 33.1 °F 63% 30.08 in 10.0 mi SW 3.5 mph - N/A   Clear
9:53 PM 48.9 °F - 30.9 °F 50% 30.08 in 10.0 mi West 4.6 mph - N/A   Clear
10:53 PM 48.9 °F - 30.0 °F 48% 30.09 in 10.0 mi West 3.5 mph - N/A   Clear
11:53 PM 41.0 °F - 34.0 °F 76% 30.09 in 10.0 mi Calm Calm - N/A   Clear